星链-5332 (STARLINK-5332 )

导读

STARLINK-5332是美国SpaceX公司星链星座的成员卫星,于2023年1月19日发射,由猎鹰9号运载火箭从范登堡空军基地送入近地轨道。星链计划旨在构建全球低轨卫星互联网,为全球提供高速宽带服务。该卫星作为星座组网的一部分,助力星链拓展覆盖范围,目前星链已实现全球多国服务覆盖,并推进手机直连等技术升级。

Basic Information
目录编号:
55285
目录名称:
STARLINK-5332
国际标识:
2023-010S
轨道中心:
EARTH
卫星名称:
星链-5332
卫星全名:
星链-5332 (STARLINK-5332 )
卫星状态:
在轨 (已飞行1245 天)
发射日期:
2023-01-19 UTC
国别 :
美国 (US)
星等 :
--
Orbit Information
数据来源 国际轨道数据 AOE轨道数据
星历时间 2026-06-17T10:14:30+0800
8小时前
查看轨道信息
2026-06-14T04:00:00+0800
3天前
查看轨道信息
半长轴 6950.189km 6950.187km
偏心率 0.0002746 0.0002808
轨道倾角 69.999° 69.999°
近地点辐角 270.991° 265.089°
升交点赤经 113.745° 121.963°
平近点角 89.094° 155.208°
近地点 570.143km 570.098km
远地点 573.961km 574.002km
周期 96.107分钟 96.107分钟
每日圈数 14.983313 14.983322
Detailed Information
固有亮度:
5
最大亮度:
2.5
卫星平台:
Starlink v1.5
覆盖范围:
全球
运营商:
太空探索技术公司
运营商所在国:
美国
制造商(研发单位):
太空探索技术公司
制造商所在国:
美国
使用方式:
暂无
Satellite Introduction
星链(Starlink)计划是由太空探索技术公司(SpaceX)提出的一个巨型低轨卫星互联网星座项目,计划在2019年至2024年间在太空搭建由约1.2万颗卫星组成的“星链”网络,其中1584颗将部署在地球上空550千米处的近地轨道,并从2020年开始工作。该卫星仍在工作。
2D Orbit Map
3D Orbit Map
Orbit Altitude Analysis Chart
Orbit Inclination Analysis Chart
Orbit Comprehensive Analysis Chart
View Comprehensive Chart